Location: Schommer Observatory
(40.5200°N, 74.4500°W)
Time: 03:56:10
(UTC-04:00)

Tiangong 2 - Pass Details

Date: 16 October 2017
Orbit: 388 x 391 km, 42.8° (Epoch: 22 October)

Event Time Altitude Azimuth Distance (km) Brightness Sun altitude
Exits shadow 04:40:46 15° 73° (ENE) 1,170 4.3 -29.0°
Drops below altitude 10° 04:41:24 10° 76° (ENE) 1,420 4.9 -28.9°
Sets 04:43:30 0° 81° (E) 2,277 6.2 -28.5°
